Location: Arboucave
(43.6130°N, 0.4343°W)
Time: 13:11:49
(UTC+00:00)

Aureole 3 Rocket - Pass Details

Date: 17 November 2025
Orbit: 398 x 1690 km, 82.5° (Epoch: 11 December)

Event Time Altitude Azimuth Distance (km) Brightness Sun altitude
Rises 17:54:32 0° 187° (S) 2,363 6.3 -14.5°
Reaches altitude 10° 17:56:33 10° 188° (S) 1,458 5.2 -14.8°
Maximum altitude 17:59:35 88° 269° (W) 406 2.1 -15.3°
Drops below altitude 10° 18:02:44 10° 8° (N) 1,512 4.9 -15.9°
Enters shadow 18:03:05 - 8° (N) 1,672 5.1 -16.0°
